Preview of NWS' New Version of Forecast
This preview is not operational and should not be used for support decisions.

Regional Weather Roundup (RWR)

Issued by National Weather Service (NWS)

                            
000
ASUS43 KLSX 251657
RWRMO 

WEATHER SUMMARY FOR MISSOURI
NATIONAL WEATHER SERVICE SPRINGFIELD MO
1200 PM CDT SUN AUG 25 2019

NOTE: "FAIR" INDICATES FEW OR NO CLOUDS BELOW 12,000 FEET WITH NO
       SIGNIFICANT WEATHER AND/OR OBSTRUCTIONS TO VISIBILITY.
       CURRENT SKY AND/OR WEATHER CONDITIONS ARE NOT AVAILABLE FOR
       CHILLICOTHE AND FARMINGTON.

MOZ001>031-035>038-043-044-053-054-251800-
...NORTHERN AND WESTERN MISSOURI...
  
CITY           SKY/WX    TMP DP  RH WIND       PRES   REMARKS
KANSAS CTY INT LGT RAIN  67  66  97 E12       29.91R FOG              
LEE'S SUMMIT   LGT RAIN  70  66  87 E7        29.90R                  
ST JOSEPH      LGT RAIN  66  64  93 SE6       29.90F FOG              
CHILLICOTHE      N/A     68  64  87 E6        29.95F                  
     
$$
MOZ066>068-077>081-088>096-101>105-251800-
...SOUTHWEST MISSOURI...
  
CITY           SKY/WX    TMP DP  RH WIND       PRES   REMARKS
SPRINGFIELD    CLOUDY    76  69  79 S13       29.93F                  
JOPLIN         LGT RAIN  68  67  96 E7        29.91F                  
BRANSON        CLOUDY    75  72  88 S10       29.97S                  
               
$$
MOZ032>034-039>042-045>050-055>058-069>072-251800-
...CENTRAL MISSOURI...  
  
CITY           SKY/WX    TMP DP  RH WIND       PRES   REMARKS
COLUMBIA       NOT AVBL                                               
JEFFERSON CITY CLOUDY    73  66  78 E9        29.94F                  
ROLLA          CLOUDY    74  68  81 S7        29.96F                  
SEDALIA        CLOUDY    69  67  93 SE10      29.94F                  
WARRENSBURG    CLOUDY    72  64  78 E7        29.91S                  
               
$$
MOZ051-052-059>065-251800-
...EAST CENTRAL MISSOURI...
  
CITY           SKY/WX    TMP DP  RH WIND       PRES   REMARKS
ST LOUIS INTL  LGT RAIN  73  63  70 E8        29.99F                  
                   
$$
MOZ072>076-082>087-097>100-106>115-251800-
...SOUTH CENTRAL AND SOUTHEAST MISSOURI...
  
CITY           SKY/WX    TMP DP  RH WIND       PRES   REMARKS
CAPE GIRARDEAU PTSUNNY   78  69  73 S6        29.97F                  
FARMINGTON     CLOUDY    72  70  94 SE6       30.00F                  
POPLAR BLUFF   LGT RAIN  76  69  79 CALM      29.97F                  
WEST PLAINS    CLOUDY    72  68  87 SE7       29.99F                  
                                       
$$